STARLINK-1280 (45388 NORAD) Tracking and Keplerian Element Data

This shows tracking and keplerian element data for the satellite.

Feedback or suggestion? Click here.




ElementValue
Catalog45388
NameSTARLINK-1280
Epoch Orbit1156
Epoch Day149.41668981
Epoch Year2020
RAAN282.0244
Inclination52.9949
Eccentricity0.0001348
Argument of Perigee95.3276
Mean Anonmoly332.7628
Mean Motion14.99143327
Decay Rate-4.634E-05
L11 45388U 20019AE 20149.41668981 -.00004634 00000-0 -35597-3 0 9990
L22 45388 52.9949 282.0244 0001348 95.3276 332.7628 14.99143327 11565

Live tracking and technical data element details for STARLINK-1280 (NORAD 45388). STARLINK-1280 can be tracked NOW for your location showing map with azimuth and elevation plus other details from your city location.

Track the satellite on the map from your city or location and see movement details for azimuth, elevation, latitude, longitude, range, height, and movement on the map or in text.







IsCatalogInMostPopularTable: catalog: 45388, numindb: 14
Update: records affected: 1



GetName: 45388 STARLINK-1280

Hit Count: updated at: Sat, 30 May 2020 14:28:42 GMT